www.pogodaiklimat.ru

Погода и климат >> Архив погоды >> Россия >> Чукотка >> Бухта Амбарчик


ПОГОДА в Бухте Амбарчик

  • Прогноз погоды в Бухте Амбарчик
  • Монитор погоды в Бухте Амбарчик
  • Климат города

АРХИВ ПОГОДЫ в Бухте Амбарчик

Время (UTC), дата Ветер
(напр.,м/с)
 
Видим.   Явления Облачность Т
(С)
Тd
(С)
f
(%)
Тe
(С)
Тes
(С)
Комфортность P
(гПа)
Po
(гПа)
Тmin
(С)
Tmax
(С)
R
(мм)
R24
(мм)
S
(см)
06 17.06 В 13-16
{17}
10 км 8/3 300 м
[Sc Ac trans Ci fib]
+1.3 +0.1 92 -7 -7 1008.3 1005.4
09 17.06 В 13-16
{17}
10 км 8/3 300 м
[Sc Ac trans Ci fib]
0.0 -0.4 97 -9 -9 1008.0 1005.1 +2.5
12 17.06 В 12-15
{16}
4000 м 9/8 200 м
[St Ac trans Ci fib]
-0.6 -0.9 98 -10 -10 1007.8 1004.9
15 17.06 В 12-15
{15}
500 м туман ?/? -1.0 -1.3 98 -10 -10 1007.7 1004.8
18 17.06 В 8-10
{15}
500 м туман ?/? -1.1 -1.3 99 -9 -9 1008.1 1005.2
21 17.06 В 7
{11}
500 м туман ?/? -0.4 -0.7 98 -8 -8 1008.6 1005.7 -1.3
00 18.06 СВ 6
{9}
4000 м дымка {туман} 10/10 200 м
[St]
+0.3 -0.5 94 -6 -6 1009.3 1006.4
03 18.06 В 6
{9}
4000 м дымка 10/8 200 м
[St Ac und]
+0.4 -0.8 92 -6 -6 1009.7 1006.8
06 18.06 В 7
{10}
2000 м дымка 10/10 200 м
[St]
0.0 -0.8 94 -7 -7 1010.2 1007.3
09 18.06 В 8-10
{12}
2000 м дымка 10/10 200 м
[St]
-0.6 -1.0 97 -9 -9 1010.8 1007.9 +0.6
12 18.06 В 6
{11}
500 м туман [диам. гололёда 0 мм] ?/? -1.6 -1.9 98 -9 -9 1011.7 1008.8
15 18.06 В 7
{10}
500 м туман [диам. гололёда 0 мм] ?/? -1.8 -2.0 99 -10 -10 1012.1 1009.2
18 18.06 В 6
{11}
500 м туман [диам. гололёда 0 мм] ?/? -1.6 -1.8 99 -9 -9 1013.3 1010.4
21 18.06 В 9-12
{13}
500 м туман ?/? -0.5 -0.7 99 -9 -9 1013.9 1011.0 -2.1
00 19.06 В 10-12
{14}
500 м туман ?/? -0.1 -0.5 97 -9 -9 1014.7 1011.8
03 19.06 В 10-13
{13}
10 км {туман} 8/8 200 м
[St]
+1.1 +0.1 93 -7 -7 1014.9 1012.0
06 19.06 В 13-16
{17}
10 км {туман} 8/8 200 м
[St]
+0.6 -0.3 94 -8 -8 1014.9 1012.0
09 19.06 В 13-16
{18}
4000 м дымка 8/8 200 м
[St]
0.0 -0.6 96 -9 -9 1015.3 1012.4 +1.1
12 19.06 В 11-15
{16}
4000 м дымка 9/9 200 м
[St]
-1.1 -1.4 98 -10 -10 1015.5 1012.6
15 19.06 В 8-12
{14}
20 км 6/6 200 м
[St]
-1.4 -2.2 94 -9 -9 1015.6 1012.7
18 19.06 В 9-12
{13}
20 км 4/3 200 м
[St Ci fib]
-0.8 -2.2 90 -9 -9 1015.6 1012.7
21 19.06 В 11-14
{14}
20 км 4/3 200 м
[St Ci fib]
+0.2 -1.5 88 -8 -8 1015.6 1012.7 -1.5
00 20.06 В 11-14
{14}
20 км 3/1 200 м
[St Ci fib]
+0.9 -1.2 86 -7 -7 1015.9 1013.0
03 20.06 В 12-15
{16}
20 км 3/1 200 м
[St Ci fib]
+1.2 -0.7 87 -7 -7 1015.3 1012.4
06 20.06 В 12-15
{16}
4000 м дымка 4/3 200 м
[St Ci fib]
+1.3 0.0 91 -7 -7 1014.3 1011.4
09 20.06 В 12-15
{16}
4000 м дымка 8/3 200 м
[St Ci fib]
+0.6 +0.2 97 -8 -8 1013.9 1011.0 +1.6
12 20.06 В 7-10
{15}
4000 м дымка 6/3 200 м
[St Ac trans Ci fib]
+0.2 -0.2 97 -7 -7 1014.1 1011.2
15 20.06 В 5
{11}
4000 м дымка 3/1 200 м
[St Ci fib]
+0.5 -0.4 94 -6 -6 1013.4 1010.5
18 20.06 В 4
{8}
20 км ясно +1.6 +0.2 90 -4 -2 1013.6 1010.7
21 20.06 В 4
{6}
20 км ясно +4.1 +1.4 83 -0 +4 1013.7 1010.8 -0.2
00 21.06 В 5
{6}
20 км ясно +6.0 +2.6 79 +2 +7 1013.5 1010.6
03 21.06 СВ 4
{6}
20 км ясно +6.2 +3.3 82 +2 +9 1013.2 1010.3
06 21.06 В 3
{5}
20 км ясно +8.5 +4.9 78 +6 +10 1012.3 1009.5
09 21.06 В 2
{4}
20 км ясно +7.8 +4.1 77 +6 +7 1012.0 1009.2 +9.4
12 21.06 В 1
{3}
20 км ясно +6.4 +3.6 82 +5 +5 1011.9 1009.0
15 21.06 штиль 0
{5}
20 км ясно +5.9 +2.9 81 +5 +5 1011.5 1008.6
18 21.06 В 2
{5}
20 км 3/0
[Ci fib]
+11.9 +6.2 68 +11 +13 1011.5 1008.7
21 21.06 СВ 2
{6}
20 км 3/1 300 м
[Cu hum Ci fib]
+12.2 +7.3 72 +11 +17 1011.5 1008.7 +5.1
00 22.06 В 4
{5}
20 км 3/1 300 м
[Cu hum Ci fib]
+16.8 +7.7 55 +16 +22 1011.1 1008.3
03 22.06 В 4
{5}
20 км 3/1 300 м
[Cu hum Ci fib]
+15.8 +8.3 61 +15 +21 1010.5 1007.7
06 22.06 В 4
{5}
20 км 3/1 300 м
[Cu hum Ci fib]
+18.7 +8.4 51 +19 +22 1009.9 1007.2
09 22.06 В 3
{6}
20 км 3/1 300 м
[Cu hum Ci fib]
+18.8 +6.3 44 +19 +20 1009.5 1006.8 +19.2
12 22.06 ЮВ 6
{8}
20 км 3/0
[Ac trans Ci fib]
+15.5 +5.4 51 +14 +14 1009.4 1006.6
15 22.06 Ю 8
{9}
20 км 4/3 300 м
[Cu hum Ac trans Ci fib]
+14.9 +4.3 49 +13 +13 1008.9 1006.1
18 22.06 ЮВ 7
{10}
20 км 9/4 300 м
[Cu hum Ac trans Ci fib]
+16.2 +5.2 48 +15 +15 1008.2 1005.4
21 22.06 ЮЗ 4
{10}
20 км 9/4 300 м
[Cu hum Ac trans Ci fib]
+16.7 +9.6 63 +16 +18 1008.5 1005.8 +13.6
00 23.06 ЮВ 7
{12}
20 км {ливн. осадки} 9/6 300 м
[Cu hum Ac trans Ci fib]
+18.8 +11.8 64 +19 +20 1007.7 1005.0
03 23.06 ЮВ 6
{12}
20 км 9/8 600 м
[Sc Ac trans]
+19.2 +10.5 57 +20 +20 1007.0 1004.3
06 23.06 В 3
{12}
20 км 8/6 600 м
[Sc Ac trans]
+11.1 +6.5 73 +9 +10 1006.5 1003.7
09 23.06 В 4
{8}
20 км 9/8 300 м
[Sc Ac trans]
+10.7 +5.0 68 +8 +9 1006.5 1003.7 +21.0 0.4
12 23.06 В 4
{7}
20 км 9/6 300 м
[Sc Ac trans]
+7.5 +3.5 76 +4 +4 1007.0 1004.2
15 23.06 В 3
{7}
20 км 9/6 300 м
[Sc Ac trans]
+5.9 +3.3 83 +3 +3 1007.3 1004.4
18 23.06 В 7
{8}
20 км 8/5 300 м
[Sc Ac trans Ci fib]
+4.9 +2.1 82 -1 -0 1008.0 1005.1
21 23.06 В 6
{10}
4000 м дымка 8/5 300 м
[Sc Ac trans Ci fib]
+3.7 +1.6 86 -2 -1 1008.7 1005.8 +3.6
00 24.06 В 6
{10}
1000 м дымка 8/6 100 м
[Sc Ac trans Ci fib]
+2.9 +1.0 87 -3 -2 1009.5 1006.6 +2.4
03 24.06 В 8
{10}
1000 м дымка 9/9 200 м
[St]
+1.8 +0.6 92 -5 -5 1009.5 1006.6

 

Местоположение метеостанции Бухта Амбарчик (Чукотка, Россия): широта 69.62 долгота 162.30 высота над уровнем моря 23 м.

В архиве по умолчанию представлена погода в Бухте Амбарчик за последнюю неделю. Архивные данные за месяц целиком и за предыдущие месяцы, начиная с января 2011 года, Вы можете получить, выбрав интересующий диапазон дат из раскрывающегося списка и нажав кнопку "Ввод!".


*Определитесь, кто Вы:
робот инопланетянин человек

Внимание! Время в таблицах - всемирное. Для получения местного времени необходимо прибавить поправку, которая в Бухте Амбарчик равна 12 ч.

Смотрите также архив погоды в соседних городах и на ближайших метеорологических станциях:

Погода в Черском (Якутия, Россия) (107 км)
Погода в Анюйске (Чукотка, Россия) (145 км)
Погода в Раучуе (Чукотка, Россия) (164 км)
Погода в Константиновской (Чукотка, Россия) (170 км)
Погода в Колымской (Якутия, Россия) (177 км)
Погода на Островном (Чукотка, Россия) (182 км)
Погода на Айон Острове (Чукотка, Россия) (218 км)
Погода в Билибино (Чукотка, Россия) (240 км)
Погода в Певеке (Чукотка, Россия) (305 км)
Погода в Андрюшкино (Якутия, Россия) (309 км)

Пояснения к столбцам:

Ветер - указаны скорость ветра в м/с - средняя за 10 мин, порывы в срок и между сроками (в фигурных скобках) и направление, откуда дует ветер: С - северный, СВ - северо-восточный, В - восточный, ЮВ - юго-восточный, Ю - южный, ЮЗ - юго-западный, З - западный, СЗ - северо-западный.
Видимость - горизонтальная дальность видимости в метрах или километрах. При видимости от 1 до 10 км при отсутствии осадков обычно наблюдается дымка, при ухудшении видимости до 1 км и менее - туман. В сухую погоду видимость может ухудшаться дымом, пылью или мглою.
Явления - указаны атмосферные явления, наблюдавшиеся в срок или в последний час перед сроком; фигурными скобками обозначены явления, наблюдавшиеся между сроками (за 1-3 часа до срока); квадратными скобками обозначены град или гололедные отложения с указанием их диаметра в мм.
Облачность - указаны через наклонную черту общая и нижняя облачность в баллах и высота нижней границы облаков в метрах; квадратными скобками обозначены формы облаков: Ci - перистые, Cs - перисто-слоистые, Cc - перисто-кучевые, Ac - высококучевые, As - высокослоистые, Sc - слоисто-кучевые, Ns - слоисто-дождевые, Cu - кучевые, Cb - кучево-дождевые. Подробнее классификацию облаков см. в Атласе облаков (PDF).
T - Температура воздуха - температура, измеренная на высоте 2 м над землей.
Td - Температура точки росы - температура, при понижении до которой содержащийся в воздухе водяной пар достигнет насыщения.
f - Относительная влажность воздуха - влажноcть воздуха, измеренная на высоте 2 м над землей.
Te - Эффективная температура - температура, которую ощущает одетый по сезону человек в тени. Характеристика душности погоды. При расчете учитывается влияние влажности воздуха и скорости ветра на теплоощущения человека.
Tes - Эффективная температура на солнце - температура, которую ощущает человек, с поправкой на солнечный нагрев. Характеристика знойности погоды. Зависит от высоты солнца над горизонтом, облачности и скорости ветра. Ночью, в пасмурную погоду, а также при ветре 12 м/с и более поправка равна нулю.
P - Атмосферное давление - приведенное к уровню моря атмосферное давление.
Po - Атмосферное давление - измеренное на уровне метеостанции атмосферное давление.
Tmin - Минимальная температура - минимум температуры воздуха на высоте 2 м над землей.
Tmax - Максимальная температура - максимум температуры воздуха на высоте 2 м над землей.
R - Количество осадков - Количество выпавших осадков за период времени, мм. При наведении курсора мыши на число - период времени, за который выпало указанное количество осадков.
R24 - Количество осадков - Количество выпавших осадков за 24 часа, мм.
S - Снежный покров - Высота снежного покрова, см. При наведении курсора мыши на число - состояние снежного покрова и степень покрытия местности в баллах.